Location: Arcusa
(42.3167°N, 0.0833°W)
Time: 13:10:19
(UTC+00:00)

Okean O Rocket - Pass Details

Date: 25 January 2020
Orbit: 622 x 645 km, 98.2° (Epoch: 27 February)

Event Time Altitude Azimuth Distance (km) Brightness Sun altitude
Rises 04:44:42 0° 28° (NNE) 2,960 5.4 -28.8°
Reaches altitude 10° 04:47:27 10° 46° (NE) 2,041 4.7 -28.3°
Maximum altitude 04:50:44 20° 93° (E) 1,477 4.2 -27.7°
Drops below altitude 10° 04:53:59 10° 141° (SE) 2,020 4.7 -27.1°
Sets 04:56:40 0° 158° (SSE) 2,918 5.3 -26.6°
